Weather History for KLBB - July, 2013

Change the Weather History Date:

Sunday, July 28, 2013

  Actual Average Record
Temperature  
Mean Temperature 77 °F 80 °F  
Max Temperature 90 °F 93 °F 105 °F (1995)
Min Temperature 64 °F 68 °F 54 °F (2005)
Degree Days  
Heating Degree Days 0 0  
Month to date heating degree days 0 0  
Since 1 June heating degree days 0 2  
Since 1 July heating degree days 0 0  
Cooling Degree Days 12 15  
Month to date cooling degree days 396 420  
Year to date cooling degree days 1185 1040  
Since 1 June cooling degree days 870 794  
Growing Degree Days 27 (Base 50)    
Moisture  
Dew Point 56 °F    
Average Humidity 50    
Maximum Humidity 68    
Minimum Humidity 31    
Precipitation  
Precipitation 0.00 in 0.06 in 2.05 in (2004)
Month to date precipitation 3.37 1.75  
Year to date precipitation 8.46 11.00  
Snow  
Snow 0.00 in 0.00 in 0.00 in (2002)
Month to date snowfall 0.0 0.0  
Since 1 June snowfall 0.0 0.0  
Since 1 July snowfall 0.0 0.0  
Snow Depth 0.00 in    
Sea Level Pressure  
Sea Level Pressure 29.85 in    
Wind  
Wind Speed 12 mph (SSE)    
Max Wind Speed 21 mph    
Max Gust Speed 31 mph    
Visibility 10 miles    
Events      
T = Trace of Precipitation, MM = Missing Value Source: NWS Daily Summary

Daily Weather History Graph

Daily Weather History Graph

Search for Another Location

Airport or City:

Trip Planner

Search our weather history database for the weather conditions in past years. The results will help you decide how hot, cold, wet, or windy it might be!

Date:

Astronomy

Jul. 28, 2013 Rise Set
Actual Time 6:56 AM CDT 8:50 PM CDT
Civil Twilight 6:29 AM CDT 9:17 PM CDT
Nautical Twilight 5:55 AM CDT 9:51 PM CDT
Astronomical Twilight 5:20 AM CDT 10:26 PM CDT
Moon 12:00 AM CDT (7/28) 1:18 PM CDT (7/28)
Length of Visible Light 14h 48m
Length of Day
13h 53m
Waning Gibbous, 60% of the Moon is Illuminated
Jul 28
Waning Gibbous
Jul 29
Last Quarter
Aug 6
New
Aug 14
First Quarter
Aug 20
Full

Hourly Weather History & Observations

Time (CDT) Temp. Heat Index Dew Point Humidity Pressure Visibility Wind Dir Wind Speed Gust Speed Precip Events Conditions
12:53 AM 71.1 °F - 54.0 °F 55% 29.92 in 10.0 mi SSE 11.5 mph - N/A   Mostly Cloudy
1:53 AM 71.1 °F - 53.1 °F 53% 29.91 in 10.0 mi SE 9.2 mph - N/A   Mostly Cloudy
2:53 AM 68.0 °F - 54.0 °F 61% 29.90 in 10.0 mi SSE 9.2 mph - N/A   Scattered Clouds
3:53 AM 69.1 °F - 53.1 °F 57% 29.88 in 10.0 mi South 10.4 mph - N/A   Partly Cloudy
4:53 AM 68.0 °F - 53.1 °F 59% 29.87 in 10.0 mi South 10.4 mph - N/A   Clear
5:53 AM 66.0 °F - 54.0 °F 65% 29.88 in 10.0 mi South 8.1 mph - N/A   Partly Cloudy
6:53 AM 66.0 °F - 54.0 °F 65% 29.88 in 10.0 mi SSE 9.2 mph - N/A   Scattered Clouds
7:53 AM 66.9 °F - 55.9 °F 68% 29.89 in 10.0 mi SSE 9.2 mph - N/A   Partly Cloudy
8:53 AM 71.1 °F - 59.0 °F 66% 29.89 in 10.0 mi South 15.0 mph - N/A   Partly Cloudy
9:53 AM 75.9 °F - 60.1 °F 58% 29.90 in 10.0 mi South 12.7 mph - N/A   Scattered Clouds
10:53 AM 79.0 °F - 59.0 °F 50% 29.88 in 10.0 mi South 17.3 mph - N/A   Scattered Clouds
11:53 AM 64.4 °F - 60.1 °F 86% 29.88 in 10.0 mi SSE 15.0 mph - N/A   Scattered Clouds
12:53 PM 84.9 °F 84.4 °F 59.0 °F 41% 29.86 in 10.0 mi SSE 12.7 mph 20.7 mph N/A   Scattered Clouds
1:53 PM 86.0 °F 85.7 °F 60.1 °F 41% 29.83 in 10.0 mi South 10.4 mph 17.3 mph N/A   Scattered Clouds
2:53 PM 88.0 °F 86.9 °F 57.9 °F 36% 29.82 in 10.0 mi SSE 8.1 mph 16.1 mph N/A   Scattered Clouds
3:53 PM 89.1 °F 87.7 °F 57.0 °F 34% 29.80 in 10.0 mi SSE 11.5 mph 19.6 mph N/A   Clear
4:53 PM 89.1 °F 87.1 °F 55.0 °F 31% 29.77 in 10.0 mi SE 15.0 mph 26.5 mph N/A   Scattered Clouds
5:53 PM 89.1 °F 87.1 °F 55.0 °F 31% 29.77 in 10.0 mi SSE 12.7 mph 21.9 mph N/A   Scattered Clouds
6:53 PM 88.0 °F 85.9 °F 54.0 °F 31% 29.77 in 10.0 mi SSE 16.1 mph - N/A   Clear
7:53 PM 86.0 °F 84.5 °F 55.0 °F 35% 29.78 in 10.0 mi SE 16.1 mph - N/A   Clear
8:53 PM 82.9 °F 82.1 °F 55.9 °F 39% 29.78 in 10.0 mi SE 13.8 mph - N/A   Clear
9:53 PM 81.0 °F 80.8 °F 55.9 °F 42% 29.81 in 10.0 mi SE 9.2 mph - N/A   Clear
10:53 PM 80.1 °F 80.2 °F 55.9 °F 43% 29.82 in 10.0 mi SE 11.5 mph - N/A   Partly Cloudy
11:53 PM 79.0 °F - 57.0 °F 47% 29.81 in 10.0 mi SSE 13.8 mph - N/A   Mostly Cloudy